Year,Month,Day,Hour,Minute,Value (Times are PST for temperature in C)
2005,09,19,00,00,12.30
2005,09,19,00,01,12.30
2005,09,19,00,02,12.30
2005,09,19,00,03,12.30
2005,09,19,00,04,12.30
2005,09,19,00,05,12.30
2005,09,19,00,06,12.30
2005,09,19,00,07,12.30
2005,09,19,00,08,12.20
2005,09,19,00,09,12.20
2005,09,19,00,10,12.20
2005,09,19,00,11,12.20
2005,09,19,00,12,12.20
2005,09,19,00,13,12.20
2005,09,19,00,14,12.20
2005,09,19,00,15,12.20
2005,09,19,00,16,12.20
2005,09,19,00,17,12.20
2005,09,19,00,18,12.20
2005,09,19,00,19,12.20
2005,09,19,00,20,12.10
2005,09,19,00,21,12.10
2005,09,19,00,22,12.10
2005,09,19,00,23,12.10
2005,09,19,00,24,12.10
2005,09,19,00,25,12.20
2005,09,19,00,26,12.20
2005,09,19,00,27,12.20
2005,09,19,00,28,12.30
2005,09,19,00,29,12.30
2005,09,19,00,30,12.30
2005,09,19,00,31,12.30
2005,09,19,00,32,12.30
2005,09,19,00,33,12.30
2005,09,19,00,34,12.30
2005,09,19,00,35,12.30
2005,09,19,00,36,12.30
2005,09,19,00,37,12.30
2005,09,19,00,38,12.30
2005,09,19,00,39,12.20
2005,09,19,00,40,12.20
2005,09,19,00,41,12.20
2005,09,19,00,42,12.20
2005,09,19,00,43,12.10
2005,09,19,00,44,12.10
2005,09,19,00,45,12.10
2005,09,19,00,46,12.10
2005,09,19,00,47,12.20
2005,09,19,00,48,12.20
2005,09,19,00,49,12.20
2005,09,19,00,50,12.20
2005,09,19,00,51,12.10
2005,09,19,00,52,12.10
2005,09,19,00,53,12.00
2005,09,19,00,54,12.00
2005,09,19,00,55,12.00
2005,09,19,00,56,12.00
2005,09,19,00,57,12.00
2005,09,19,00,58,12.00
2005,09,19,00,59,12.00
2005,09,19,01,00,12.00
2005,09,19,01,01,12.10
2005,09,19,01,02,12.10
2005,09,19,01,03,12.10
2005,09,19,01,04,12.20
2005,09,19,01,05,12.20
2005,09,19,01,06,12.30
2005,09,19,01,07,12.30
2005,09,19,01,08,12.30
2005,09,19,01,09,12.30
2005,09,19,01,10,12.30
2005,09,19,01,11,12.30
2005,09,19,01,12,12.20
2005,09,19,01,13,12.20
2005,09,19,01,14,12.20
2005,09,19,01,15,12.20
2005,09,19,01,16,12.20
2005,09,19,01,17,12.20
2005,09,19,01,18,12.20
2005,09,19,01,19,12.20
2005,09,19,01,20,12.20
2005,09,19,01,21,12.30
2005,09,19,01,22,12.30
2005,09,19,01,23,12.30
2005,09,19,01,24,12.30
2005,09,19,01,25,12.30
2005,09,19,01,26,12.30
2005,09,19,01,27,12.30
2005,09,19,01,28,12.30
2005,09,19,01,29,12.30
2005,09,19,01,30,12.30
2005,09,19,01,31,12.30
2005,09,19,01,32,12.20
2005,09,19,01,33,12.20
2005,09,19,01,34,12.20
2005,09,19,01,35,12.20
2005,09,19,01,36,12.10
2005,09,19,01,37,12.10
2005,09,19,01,38,12.10
2005,09,19,01,39,12.10
2005,09,19,01,40,12.10
2005,09,19,01,41,12.10
2005,09,19,01,42,12.20
2005,09,19,01,43,12.20
2005,09,19,01,44,12.30
2005,09,19,01,45,12.30
2005,09,19,01,46,12.40
2005,09,19,01,47,12.40
2005,09,19,01,48,12.40
2005,09,19,01,49,12.40
2005,09,19,01,50,12.40
2005,09,19,01,51,12.40
2005,09,19,01,52,12.40
2005,09,19,01,53,12.50
2005,09,19,01,54,12.50
2005,09,19,01,55,12.50
2005,09,19,01,56,12.50
2005,09,19,01,57,12.50
2005,09,19,01,58,12.50
2005,09,19,01,59,12.50
2005,09,19,02,00,12.50
2005,09,19,02,01,12.50
2005,09,19,02,02,12.50
2005,09,19,02,03,12.50
2005,09,19,02,04,12.50
2005,09,19,02,05,12.50
2005,09,19,02,06,12.60
2005,09,19,02,07,12.60
2005,09,19,02,08,12.60
2005,09,19,02,09,12.60
2005,09,19,02,10,12.70
2005,09,19,02,11,12.70
2005,09,19,02,12,12.70
2005,09,19,02,13,12.80
2005,09,19,02,14,12.80
2005,09,19,02,15,12.80
2005,09,19,02,16,12.80
2005,09,19,02,17,12.90
2005,09,19,02,18,12.90
2005,09,19,02,19,12.90
2005,09,19,02,20,13.00
2005,09,19,02,21,13.00
2005,09,19,02,22,13.10
2005,09,19,02,23,13.10
2005,09,19,02,24,13.20
2005,09,19,02,25,13.20
2005,09,19,02,26,13.20
2005,09,19,02,27,13.30
2005,09,19,02,28,13.30
2005,09,19,02,29,13.30
2005,09,19,02,30,13.30
2005,09,19,02,31,13.30
2005,09,19,02,32,13.30
2005,09,19,02,33,13.30
2005,09,19,02,34,13.30
2005,09,19,02,35,13.30
2005,09,19,02,36,13.30
2005,09,19,02,37,13.30
2005,09,19,02,38,13.30
2005,09,19,02,39,13.30
2005,09,19,02,40,13.30
2005,09,19,02,41,13.30
2005,09,19,02,42,13.30
2005,09,19,02,43,13.30
2005,09,19,02,44,13.30
2005,09,19,02,45,13.30
2005,09,19,02,46,13.30
2005,09,19,02,47,13.30
2005,09,19,02,48,13.30
2005,09,19,02,49,13.20
2005,09,19,02,50,13.20
2005,09,19,02,51,13.20
2005,09,19,02,52,13.20
2005,09,19,02,53,13.20
2005,09,19,02,54,13.20
2005,09,19,02,55,13.20
2005,09,19,02,56,13.20
2005,09,19,02,57,13.20
2005,09,19,02,58,13.10
2005,09,19,02,59,13.10
2005,09,19,03,00,13.10
2005,09,19,03,01,13.00
2005,09,19,03,02,13.00
2005,09,19,03,03,13.00
2005,09,19,03,04,12.90
2005,09,19,03,05,12.90
2005,09,19,03,06,12.90
2005,09,19,03,07,12.90
2005,09,19,03,08,12.90
2005,09,19,03,09,13.00
2005,09,19,03,10,13.00
2005,09,19,03,11,13.10
2005,09,19,03,12,13.10
2005,09,19,03,13,13.20
2005,09,19,03,14,13.20
2005,09,19,03,15,13.30
2005,09,19,03,16,13.30
2005,09,19,03,17,13.30
2005,09,19,03,18,13.30
2005,09,19,03,19,13.20
2005,09,19,03,20,13.10
2005,09,19,03,21,13.10
2005,09,19,03,22,13.10
2005,09,19,03,23,13.00
2005,09,19,03,24,13.00
2005,09,19,03,25,13.00
2005,09,19,03,26,13.00
2005,09,19,03,27,13.00
2005,09,19,03,28,13.00
2005,09,19,03,29,13.00
2005,09,19,03,30,13.00
2005,09,19,03,31,13.10
2005,09,19,03,32,13.10
2005,09,19,03,33,13.10
2005,09,19,03,34,13.20
2005,09,19,03,35,13.20
2005,09,19,03,36,13.20
2005,09,19,03,37,13.30
2005,09,19,03,38,13.30
2005,09,19,03,39,13.30
2005,09,19,03,40,13.40
2005,09,19,03,41,13.40
2005,09,19,03,42,13.50
2005,09,19,03,43,13.50
2005,09,19,03,44,13.50
2005,09,19,03,45,13.60
2005,09,19,03,46,13.60
2005,09,19,03,47,13.60
2005,09,19,03,48,13.60
2005,09,19,03,49,13.60
2005,09,19,03,50,13.60
2005,09,19,03,51,13.60
2005,09,19,03,52,13.60
2005,09,19,03,53,13.60
2005,09,19,03,54,13.60
2005,09,19,03,55,13.60
2005,09,19,03,56,13.60
2005,09,19,03,57,13.60
2005,09,19,03,58,13.60
2005,09,19,03,59,13.60
2005,09,19,04,00,13.60
2005,09,19,04,01,13.60
2005,09,19,04,02,13.60
2005,09,19,04,03,13.60
2005,09,19,04,04,13.60
2005,09,19,04,05,13.50
2005,09,19,04,06,13.40
2005,09,19,04,07,13.30
2005,09,19,04,08,13.20
2005,09,19,04,09,13.20
2005,09,19,04,10,13.10
2005,09,19,04,11,13.00
2005,09,19,04,12,13.00
2005,09,19,04,13,12.90
2005,09,19,04,14,13.00
2005,09,19,04,15,13.00
2005,09,19,04,16,13.00
2005,09,19,04,17,13.10
2005,09,19,04,18,13.10
2005,09,19,04,19,13.10
2005,09,19,04,20,13.20
2005,09,19,04,21,13.20
2005,09,19,04,22,13.30
2005,09,19,04,23,13.30
2005,09,19,04,24,13.30
2005,09,19,04,25,13.30
2005,09,19,04,26,13.30
2005,09,19,04,27,13.30
2005,09,19,04,28,13.30
2005,09,19,04,29,13.30
2005,09,19,04,30,13.30
2005,09,19,04,31,13.30
2005,09,19,04,32,13.30
2005,09,19,04,33,13.30
2005,09,19,04,34,13.20
2005,09,19,04,35,13.20
2005,09,19,04,36,13.10
2005,09,19,04,37,13.10
2005,09,19,04,38,13.10
2005,09,19,04,39,13.00
2005,09,19,04,40,12.90
2005,09,19,04,41,12.90
2005,09,19,04,42,12.80
2005,09,19,04,43,12.80
2005,09,19,04,44,12.80
2005,09,19,04,45,12.80
2005,09,19,04,46,12.80
2005,09,19,04,47,12.80
2005,09,19,04,48,12.70
2005,09,19,04,49,12.70
2005,09,19,04,50,12.70
2005,09,19,04,51,12.70
2005,09,19,04,52,12.60
2005,09,19,04,53,12.60
2005,09,19,04,54,12.50
2005,09,19,04,55,12.50
2005,09,19,04,56,12.50
2005,09,19,04,57,12.50
2005,09,19,04,58,12.50
2005,09,19,04,59,12.40
2005,09,19,05,00,12.40
2005,09,19,05,01,12.40
2005,09,19,05,02,12.40
2005,09,19,05,03,12.40
2005,09,19,05,04,12.40
2005,09,19,05,05,12.30
2005,09,19,05,06,12.30
2005,09,19,05,07,12.30
2005,09,19,05,08,12.30
2005,09,19,05,09,12.30
2005,09,19,05,10,12.30
2005,09,19,05,11,12.20
2005,09,19,05,12,12.20
2005,09,19,05,13,12.20
2005,09,19,05,14,12.20
2005,09,19,05,15,12.20
2005,09,19,05,16,12.20
2005,09,19,05,17,12.10
2005,09,19,05,18,12.10
2005,09,19,05,19,12.10
2005,09,19,05,20,12.20
2005,09,19,05,21,12.20
2005,09,19,05,22,12.20
2005,09,19,05,23,12.20
2005,09,19,05,24,12.20
2005,09,19,05,25,12.20
2005,09,19,05,26,12.20
2005,09,19,05,27,12.20
2005,09,19,05,28,12.20
2005,09,19,05,29,12.20
2005,09,19,05,30,12.20
2005,09,19,05,31,12.20
2005,09,19,05,32,12.30
2005,09,19,05,33,12.30
2005,09,19,05,34,12.30
2005,09,19,05,35,12.30
2005,09,19,05,36,12.30
2005,09,19,05,37,12.30
2005,09,19,05,38,12.30
2005,09,19,05,39,12.30
2005,09,19,05,40,12.30
2005,09,19,05,41,12.30
2005,09,19,05,42,12.30
2005,09,19,05,43,12.30
2005,09,19,05,44,12.30
2005,09,19,05,45,12.30
2005,09,19,05,46,12.30
2005,09,19,05,47,12.30
2005,09,19,05,48,12.30
2005,09,19,05,49,12.30
2005,09,19,05,50,12.30
2005,09,19,05,51,12.20
2005,09,19,05,52,12.20
2005,09,19,05,53,12.20
2005,09,19,05,54,12.20
2005,09,19,05,55,12.20
2005,09,19,05,56,12.20
2005,09,19,05,57,12.20
2005,09,19,05,58,12.10
2005,09,19,05,59,12.10
2005,09,19,06,00,12.10
2005,09,19,06,01,12.10
2005,09,19,06,02,12.10
2005,09,19,06,03,12.10
2005,09,19,06,04,12.10
2005,09,19,06,05,12.10
2005,09,19,06,06,12.00
2005,09,19,06,07,12.00
2005,09,19,06,08,12.00
2005,09,19,06,09,12.00
2005,09,19,06,10,12.00
2005,09,19,06,11,12.00
2005,09,19,06,12,12.00
2005,09,19,06,13,12.00
2005,09,19,06,14,12.00
2005,09,19,06,15,12.00
2005,09,19,06,16,11.90
2005,09,19,06,17,11.90
2005,09,19,06,18,11.90
2005,09,19,06,19,11.90
2005,09,19,06,20,11.90
2005,09,19,06,21,11.90
2005,09,19,06,22,11.90
2005,09,19,06,23,11.90
2005,09,19,06,24,11.90
2005,09,19,06,25,11.90
2005,09,19,06,26,11.90
2005,09,19,06,27,11.90
2005,09,19,06,28,11.90
2005,09,19,06,29,11.90
2005,09,19,06,30,11.90
2005,09,19,06,31,11.90
2005,09,19,06,32,12.00
2005,09,19,06,33,12.00
2005,09,19,06,34,12.00
2005,09,19,06,35,11.90
2005,09,19,06,36,11.90
2005,09,19,06,37,11.90
2005,09,19,06,38,11.90
2005,09,19,06,39,11.90
2005,09,19,06,40,11.90
2005,09,19,06,41,11.90
2005,09,19,06,42,11.90
2005,09,19,06,43,11.90
2005,09,19,06,44,11.90
2005,09,19,06,45,11.90
2005,09,19,06,46,11.90
2005,09,19,06,47,11.90
2005,09,19,06,48,11.90
2005,09,19,06,49,11.90
2005,09,19,06,50,11.90
2005,09,19,06,51,11.90
2005,09,19,06,52,11.90
2005,09,19,06,53,11.90
2005,09,19,06,54,11.90
2005,09,19,06,55,11.90
2005,09,19,06,56,11.90
2005,09,19,06,57,11.90
2005,09,19,06,58,11.90
2005,09,19,06,59,11.90
2005,09,19,07,00,11.90
2005,09,19,07,01,12.00
2005,09,19,07,02,12.00
2005,09,19,07,03,12.00
2005,09,19,07,04,12.00
2005,09,19,07,05,12.00
2005,09,19,07,06,12.10
2005,09,19,07,07,12.10
2005,09,19,07,08,12.10
2005,09,19,07,09,12.20
2005,09,19,07,10,12.20
2005,09,19,07,11,12.20
2005,09,19,07,12,12.20
2005,09,19,07,13,12.20
2005,09,19,07,14,12.20
2005,09,19,07,15,12.20
2005,09,19,07,16,12.20
2005,09,19,07,17,12.20
2005,09,19,07,18,12.20
2005,09,19,07,19,12.20
2005,09,19,07,20,12.20
2005,09,19,07,21,12.20
2005,09,19,07,22,12.20
2005,09,19,07,23,12.30
2005,09,19,07,24,12.30
2005,09,19,07,25,12.30
2005,09,19,07,26,12.30
2005,09,19,07,27,12.20
2005,09,19,07,28,12.20
2005,09,19,07,29,12.20
2005,09,19,07,30,12.20
2005,09,19,07,31,12.10
2005,09,19,07,32,12.10
2005,09,19,07,33,12.10
2005,09,19,07,34,12.00
2005,09,19,07,35,12.00
2005,09,19,07,36,12.00
2005,09,19,07,37,12.00
2005,09,19,07,38,12.00
2005,09,19,07,39,12.00
2005,09,19,07,40,12.00
2005,09,19,07,41,12.00
2005,09,19,07,42,12.00
2005,09,19,07,43,12.00
2005,09,19,07,44,12.00
2005,09,19,07,45,12.00
2005,09,19,07,46,12.00
2005,09,19,07,47,12.00
2005,09,19,07,48,12.00
2005,09,19,07,49,12.00
2005,09,19,07,50,12.00
2005,09,19,07,51,12.00
2005,09,19,07,52,12.00
2005,09,19,07,53,12.00
2005,09,19,07,54,12.00
2005,09,19,07,55,12.00
2005,09,19,07,56,11.90
2005,09,19,07,57,11.90
2005,09,19,07,58,11.80
2005,09,19,07,59,11.80
2005,09,19,08,00,11.80
2005,09,19,08,01,11.80
2005,09,19,08,02,11.90
2005,09,19,08,03,11.90
2005,09,19,08,04,12.00
2005,09,19,08,05,12.00
2005,09,19,08,06,12.10
2005,09,19,08,07,12.20
2005,09,19,08,08,12.30
2005,09,19,08,09,12.30
2005,09,19,08,10,12.40
2005,09,19,08,11,12.50
2005,09,19,08,12,12.60
2005,09,19,08,13,12.70
2005,09,19,08,14,12.70
2005,09,19,08,15,12.80
2005,09,19,08,16,12.80
2005,09,19,08,17,12.80
2005,09,19,08,18,12.90
2005,09,19,08,19,13.00
2005,09,19,08,20,13.20
2005,09,19,08,21,13.30
2005,09,19,08,22,13.30
2005,09,19,08,23,13.40
2005,09,19,08,24,13.50
2005,09,19,08,25,13.50
2005,09,19,08,26,13.60
2005,09,19,08,27,13.70
2005,09,19,08,28,13.70
2005,09,19,08,29,13.70
2005,09,19,08,30,13.60
2005,09,19,08,31,13.60
2005,09,19,08,32,13.50
2005,09,19,08,33,13.40
2005,09,19,08,34,13.30
2005,09,19,08,35,13.30
2005,09,19,08,36,13.30
2005,09,19,08,37,13.20
2005,09,19,08,38,13.20
2005,09,19,08,39,13.20
2005,09,19,08,40,13.30
2005,09,19,08,41,13.30
2005,09,19,08,42,13.30
2005,09,19,08,43,13.40
2005,09,19,08,44,13.50
2005,09,19,08,45,13.60
2005,09,19,08,46,13.60
2005,09,19,08,47,13.60
2005,09,19,08,48,13.50
2005,09,19,08,49,13.60
2005,09,19,08,50,13.60
2005,09,19,08,51,13.70
2005,09,19,08,52,13.70
2005,09,19,08,53,13.70
2005,09,19,08,54,13.70
2005,09,19,08,55,13.70
2005,09,19,08,56,13.70
2005,09,19,08,57,13.70
2005,09,19,08,58,13.70
2005,09,19,08,59,13.70
2005,09,19,09,00,13.70
2005,09,19,09,01,13.60
2005,09,19,09,02,13.70
2005,09,19,09,03,13.70
2005,09,19,09,04,13.70
2005,09,19,09,05,13.70
2005,09,19,09,06,13.80
2005,09,19,09,07,13.70
2005,09,19,09,08,13.70
2005,09,19,09,09,13.70
2005,09,19,09,10,13.70
2005,09,19,09,11,13.60
2005,09,19,09,12,13.50
2005,09,19,09,13,13.40
2005,09,19,09,14,13.20
2005,09,19,09,15,13.10
2005,09,19,09,16,13.00
2005,09,19,09,17,13.00
2005,09,19,09,18,13.00
2005,09,19,09,19,13.00
2005,09,19,09,20,13.00
2005,09,19,09,21,12.90
2005,09,19,09,22,12.80
2005,09,19,09,23,12.70
2005,09,19,09,24,12.60
2005,09,19,09,25,12.50
2005,09,19,09,26,12.50
2005,09,19,09,27,12.40
2005,09,19,09,28,12.40
2005,09,19,09,29,12.40
2005,09,19,09,30,12.40
2005,09,19,09,31,12.30
2005,09,19,09,32,12.30
2005,09,19,09,33,12.30
2005,09,19,09,34,12.30
2005,09,19,09,35,12.30
2005,09,19,09,36,12.30
2005,09,19,09,37,12.30
2005,09,19,09,38,12.30
2005,09,19,09,39,12.30
2005,09,19,09,40,12.30
2005,09,19,09,41,12.30
2005,09,19,09,42,12.30
2005,09,19,09,43,12.30
2005,09,19,09,44,12.40
2005,09,19,09,45,12.40
2005,09,19,09,46,12.40
2005,09,19,09,47,12.40
2005,09,19,09,48,12.40
2005,09,19,09,49,12.40
2005,09,19,09,50,12.40
2005,09,19,09,51,12.40
2005,09,19,09,52,12.50
2005,09,19,09,53,12.50
2005,09,19,09,54,12.60
2005,09,19,09,55,12.60
2005,09,19,09,56,12.70
2005,09,19,09,57,12.70
2005,09,19,09,58,12.80
2005,09,19,09,59,12.80
2005,09,19,10,00,12.90
2005,09,19,10,01,13.00
2005,09,19,10,02,13.10
2005,09,19,10,03,13.10
2005,09,19,10,04,13.20
2005,09,19,10,05,13.30
2005,09,19,10,06,13.30
2005,09,19,10,07,13.30
2005,09,19,10,08,13.40
2005,09,19,10,09,13.50
2005,09,19,10,10,13.50
2005,09,19,10,11,13.60
2005,09,19,10,12,13.60
2005,09,19,10,13,13.70
2005,09,19,10,14,13.70
2005,09,19,10,15,13.80
2005,09,19,10,16,13.80
2005,09,19,10,17,13.80
2005,09,19,10,18,13.90
2005,09,19,10,19,13.80
2005,09,19,10,20,13.90
2005,09,19,10,21,13.90
2005,09,19,10,22,14.00
2005,09,19,10,23,14.00
2005,09,19,10,24,14.10
2005,09,19,10,25,14.20
2005,09,19,10,26,14.30
2005,09,19,10,27,14.40
2005,09,19,10,28,14.50
2005,09,19,10,29,14.70
2005,09,19,10,30,14.80
2005,09,19,10,31,14.90
2005,09,19,10,32,15.00
2005,09,19,10,33,15.10
2005,09,19,10,34,15.20
2005,09,19,10,35,15.20
2005,09,19,10,36,15.20
2005,09,19,10,37,15.10
2005,09,19,10,38,15.10
2005,09,19,10,39,15.10
2005,09,19,10,40,15.20
2005,09,19,10,41,15.30
2005,09,19,10,42,15.30
2005,09,19,10,43,15.30
2005,09,19,10,44,15.40
2005,09,19,10,45,15.40
2005,09,19,10,46,15.30
2005,09,19,10,47,15.30
2005,09,19,10,48,15.30
2005,09,19,10,49,15.20
2005,09,19,10,50,15.20
2005,09,19,10,51,15.30
2005,09,19,10,52,15.30
2005,09,19,10,53,15.20
2005,09,19,10,54,15.20
2005,09,19,10,55,15.20
2005,09,19,10,56,15.10
2005,09,19,10,57,15.10
2005,09,19,10,58,15.10
2005,09,19,10,59,15.10
2005,09,19,11,00,15.10
2005,09,19,11,01,15.20
2005,09,19,11,02,15.20
2005,09,19,11,03,15.20
2005,09,19,11,04,15.20
2005,09,19,11,05,15.20
2005,09,19,11,06,15.20
2005,09,19,11,07,15.30
2005,09,19,11,08,15.40
2005,09,19,11,09,15.40
2005,09,19,11,10,15.40
2005,09,19,11,11,15.40
2005,09,19,11,12,15.40
2005,09,19,11,13,15.40
2005,09,19,11,14,15.50
2005,09,19,11,15,15.60
2005,09,19,11,16,15.60
2005,09,19,11,17,15.60
2005,09,19,11,18,15.50
2005,09,19,11,19,15.50
2005,09,19,11,20,15.40
2005,09,19,11,21,15.50
2005,09,19,11,22,15.50
2005,09,19,11,23,15.50
2005,09,19,11,24,15.50
2005,09,19,11,25,15.50
2005,09,19,11,26,15.70
2005,09,19,11,27,15.80
2005,09,19,11,28,15.80
2005,09,19,11,29,15.80
2005,09,19,11,30,15.80
2005,09,19,11,31,15.80
2005,09,19,11,32,15.80
2005,09,19,11,33,15.90
2005,09,19,11,34,16.00
2005,09,19,11,35,16.10
2005,09,19,11,36,16.10
2005,09,19,11,37,16.10
2005,09,19,11,38,16.20
2005,09,19,11,39,16.20
2005,09,19,11,40,16.40
2005,09,19,11,41,16.40
2005,09,19,11,42,16.60
2005,09,19,11,43,16.60
2005,09,19,11,44,16.70
2005,09,19,11,45,16.70
2005,09,19,11,46,16.60
2005,09,19,11,47,16.40
2005,09,19,11,48,16.30
2005,09,19,11,49,16.10
2005,09,19,11,50,16.10
2005,09,19,11,51,16.10
2005,09,19,11,52,16.10
2005,09,19,11,53,16.10
2005,09,19,11,54,16.30
2005,09,19,11,55,16.40
2005,09,19,11,56,16.30
2005,09,19,11,57,16.30
2005,09,19,11,58,16.30
2005,09,19,11,59,16.40
2005,09,19,12,00,16.50
2005,09,19,12,01,16.60
2005,09,19,12,02,16.60
2005,09,19,12,03,16.50
2005,09,19,12,04,16.40
2005,09,19,12,05,16.30
2005,09,19,12,06,16.20
2005,09,19,12,07,16.20
2005,09,19,12,08,16.30
2005,09,19,12,09,16.40
2005,09,19,12,10,16.60
2005,09,19,12,11,16.70
2005,09,19,12,12,16.60
2005,09,19,12,13,16.60
2005,09,19,12,14,16.70
2005,09,19,12,15,16.80
2005,09,19,12,16,16.90
2005,09,19,12,17,16.90
2005,09,19,12,18,17.00
2005,09,19,12,19,17.10
2005,09,19,12,20,17.20
2005,09,19,12,21,17.20
2005,09,19,12,22,17.20
2005,09,19,12,23,17.30
2005,09,19,12,24,17.40
2005,09,19,12,25,17.50
2005,09,19,12,26,17.50
2005,09,19,12,27,17.50
2005,09,19,12,28,17.50
2005,09,19,12,29,17.50
2005,09,19,12,30,17.50
2005,09,19,12,31,17.40
2005,09,19,12,32,17.50
2005,09,19,12,33,17.50
2005,09,19,12,34,17.50
2005,09,19,12,35,17.50
2005,09,19,12,36,17.50
2005,09,19,12,37,17.50
2005,09,19,12,38,17.60
2005,09,19,12,39,17.70
2005,09,19,12,40,17.60
2005,09,19,12,41,17.60
2005,09,19,12,42,17.50
2005,09,19,12,43,17.60
2005,09,19,12,44,17.60
2005,09,19,12,45,17.70
2005,09,19,12,46,17.80
2005,09,19,12,47,17.90
2005,09,19,12,48,17.90
2005,09,19,12,49,18.00
2005,09,19,12,50,18.10
2005,09,19,12,51,18.10
2005,09,19,12,52,18.20
2005,09,19,12,53,18.20
2005,09,19,12,54,18.20
2005,09,19,12,55,18.30
2005,09,19,12,56,18.30
2005,09,19,12,57,18.40
2005,09,19,12,58,18.40
2005,09,19,12,59,18.40
2005,09,19,13,00,18.40
2005,09,19,13,01,18.40
2005,09,19,13,02,18.60
2005,09,19,13,03,18.70
2005,09,19,13,04,18.80
2005,09,19,13,05,18.90
2005,09,19,13,06,18.90
2005,09,19,13,07,18.90
2005,09,19,13,08,18.90
2005,09,19,13,09,18.90
2005,09,19,13,10,18.80
2005,09,19,13,11,18.80
2005,09,19,13,12,18.80
2005,09,19,13,13,18.80
2005,09,19,13,14,18.80
2005,09,19,13,15,18.80
2005,09,19,13,16,18.70
2005,09,19,13,17,18.70
2005,09,19,13,18,18.80
2005,09,19,13,19,18.80
2005,09,19,13,20,18.80
2005,09,19,13,21,18.80
2005,09,19,13,22,18.80
2005,09,19,13,23,18.80
2005,09,19,13,24,18.90
2005,09,19,13,25,18.90
2005,09,19,13,26,18.90
2005,09,19,13,27,18.90
2005,09,19,13,28,18.90
2005,09,19,13,29,18.90
2005,09,19,13,30,18.90
2005,09,19,13,31,18.90
2005,09,19,13,32,18.90
2005,09,19,13,33,18.90
2005,09,19,13,34,18.90
2005,09,19,13,35,18.90
2005,09,19,13,36,18.90
2005,09,19,13,37,18.90
2005,09,19,13,38,19.00
2005,09,19,13,39,19.00
2005,09,19,13,40,18.90
2005,09,19,13,41,18.90
2005,09,19,13,42,18.90
2005,09,19,13,43,18.90
2005,09,19,13,44,18.90
2005,09,19,13,45,18.90
2005,09,19,13,46,18.90
2005,09,19,13,47,19.00
2005,09,19,13,48,19.10
2005,09,19,13,49,19.10
2005,09,19,13,50,19.20
2005,09,19,13,51,19.30
2005,09,19,13,52,19.40
2005,09,19,13,53,19.50
2005,09,19,13,54,19.60
2005,09,19,13,55,19.60
2005,09,19,13,56,19.60
2005,09,19,13,57,19.70
2005,09,19,13,58,19.90
2005,09,19,13,59,19.90
2005,09,19,14,00,20.00
2005,09,19,14,01,20.10
2005,09,19,14,02,20.10
2005,09,19,14,03,20.00
2005,09,19,14,04,19.90
2005,09,19,14,05,19.90
2005,09,19,14,06,19.90
2005,09,19,14,07,19.80
2005,09,19,14,08,19.70
2005,09,19,14,09,19.70
2005,09,19,14,10,19.70
2005,09,19,14,11,19.80
2005,09,19,14,12,19.70
2005,09,19,14,13,19.70
2005,09,19,14,14,19.70
2005,09,19,14,15,19.70
2005,09,19,14,16,19.70
2005,09,19,14,17,19.70
2005,09,19,14,18,19.70
2005,09,19,14,19,19.80
2005,09,19,14,20,19.80
2005,09,19,14,21,19.80
2005,09,19,14,22,19.80
2005,09,19,14,23,19.90
2005,09,19,14,24,19.90
2005,09,19,14,25,20.00
2005,09,19,14,26,20.10
2005,09,19,14,27,20.20
2005,09,19,14,28,20.20
2005,09,19,14,29,20.20
2005,09,19,14,30,20.10
2005,09,19,14,31,19.90
2005,09,19,14,32,19.90
2005,09,19,14,33,19.90
2005,09,19,14,34,19.90
2005,09,19,14,35,19.90
2005,09,19,14,36,19.90
2005,09,19,14,37,19.90
2005,09,19,14,38,19.90
2005,09,19,14,39,19.90
2005,09,19,14,40,19.90
2005,09,19,14,41,20.00
2005,09,19,14,42,20.10
2005,09,19,14,43,20.10
2005,09,19,14,44,20.20
2005,09,19,14,45,20.20
2005,09,19,14,46,20.20
2005,09,19,14,47,20.10
2005,09,19,14,48,20.00
2005,09,19,14,49,19.90
2005,09,19,14,50,19.90
2005,09,19,14,51,19.90
2005,09,19,14,52,19.90
2005,09,19,14,53,19.90
2005,09,19,14,54,19.80
2005,09,19,14,55,19.70
2005,09,19,14,56,19.70
2005,09,19,14,57,19.70
2005,09,19,14,58,19.70
2005,09,19,14,59,19.80
2005,09,19,15,00,19.90
2005,09,19,15,01,19.90
2005,09,19,15,02,19.90
2005,09,19,15,03,20.00
2005,09,19,15,04,20.10
2005,09,19,15,05,20.10
2005,09,19,15,06,20.10
2005,09,19,15,07,20.20
2005,09,19,15,08,20.20
2005,09,19,15,09,20.20
2005,09,19,15,10,20.30
2005,09,19,15,11,20.30
2005,09,19,15,12,20.30
2005,09,19,15,13,20.30
2005,09,19,15,14,20.30
2005,09,19,15,15,20.20
2005,09,19,15,16,20.10
2005,09,19,15,17,20.10
2005,09,19,15,18,19.90
2005,09,19,15,19,19.80
2005,09,19,15,20,19.80
2005,09,19,15,21,19.90
2005,09,19,15,22,19.90
2005,09,19,15,23,19.90
2005,09,19,15,24,19.80
2005,09,19,15,25,19.80
2005,09,19,15,26,19.70
2005,09,19,15,27,19.70
2005,09,19,15,28,19.70
2005,09,19,15,29,19.80
2005,09,19,15,30,19.80
2005,09,19,15,31,19.80
2005,09,19,15,32,19.80
2005,09,19,15,33,19.80
2005,09,19,15,34,19.80
2005,09,19,15,35,19.90
2005,09,19,15,36,19.90
2005,09,19,15,37,19.90
2005,09,19,15,38,19.90
2005,09,19,15,39,19.90
2005,09,19,15,40,19.90
2005,09,19,15,41,19.80
2005,09,19,15,42,19.80
2005,09,19,15,43,19.70
2005,09,19,15,44,19.60
2005,09,19,15,45,19.60
2005,09,19,15,46,19.60
2005,09,19,15,47,19.60
2005,09,19,15,48,19.60
2005,09,19,15,49,19.60
2005,09,19,15,50,19.60
2005,09,19,15,51,19.60
2005,09,19,15,52,19.60
2005,09,19,15,53,19.60
2005,09,19,15,54,19.70
2005,09,19,15,55,19.70
2005,09,19,15,56,19.70
2005,09,19,15,57,19.70
2005,09,19,15,58,19.70
2005,09,19,15,59,19.70
2005,09,19,16,00,19.60
2005,09,19,16,01,19.60
2005,09,19,16,02,19.60
2005,09,19,16,03,19.60
2005,09,19,16,04,19.70
2005,09,19,16,05,19.70
2005,09,19,16,06,19.60
2005,09,19,16,07,19.60
2005,09,19,16,08,19.60
2005,09,19,16,09,19.60
2005,09,19,16,10,19.60
2005,09,19,16,11,19.60
2005,09,19,16,12,19.50
2005,09,19,16,13,19.50
2005,09,19,16,14,19.50
2005,09,19,16,15,19.40
2005,09,19,16,16,19.40
2005,09,19,16,17,19.40
2005,09,19,16,18,19.40
2005,09,19,16,19,19.40
2005,09,19,16,20,19.40
2005,09,19,16,21,19.40
2005,09,19,16,22,19.40
2005,09,19,16,23,19.40
2005,09,19,16,24,19.40
2005,09,19,16,25,19.50
2005,09,19,16,26,19.50
2005,09,19,16,27,19.40
2005,09,19,16,28,19.30
2005,09,19,16,29,19.30
2005,09,19,16,30,19.20
2005,09,19,16,31,19.20
2005,09,19,16,32,19.10
2005,09,19,16,33,19.10
2005,09,19,16,34,19.10
2005,09,19,16,35,19.10
2005,09,19,16,36,19.10
2005,09,19,16,37,19.20
2005,09,19,16,38,19.10
2005,09,19,16,39,19.10
2005,09,19,16,40,19.10
2005,09,19,16,41,19.00
2005,09,19,16,42,18.90
2005,09,19,16,43,18.90
2005,09,19,16,44,18.80
2005,09,19,16,45,18.70
2005,09,19,16,46,18.70
2005,09,19,16,47,18.70
2005,09,19,16,48,18.70
2005,09,19,16,49,18.80
2005,09,19,16,50,18.90
2005,09,19,16,51,18.90
2005,09,19,16,52,18.90
2005,09,19,16,53,18.90
2005,09,19,16,54,19.00
2005,09,19,16,55,19.10
2005,09,19,16,56,19.10
2005,09,19,16,57,19.10
2005,09,19,16,58,19.10
2005,09,19,16,59,19.10
2005,09,19,17,00,19.10
2005,09,19,17,01,19.10
2005,09,19,17,02,19.10
2005,09,19,17,03,19.10
2005,09,19,17,04,19.00
2005,09,19,17,05,18.80
2005,09,19,17,06,18.70
2005,09,19,17,07,18.60
2005,09,19,17,08,18.60
2005,09,19,17,09,18.50
2005,09,19,17,10,18.40
2005,09,19,17,11,18.30
2005,09,19,17,12,18.30
2005,09,19,17,13,18.20
2005,09,19,17,14,18.10
2005,09,19,17,15,18.10
2005,09,19,17,16,18.10
2005,09,19,17,17,18.10
2005,09,19,17,18,18.10
2005,09,19,17,19,18.10